Tracking 19212 objects as of 16-Jul-2018
HD Live streaming from Space Station
objects crossing your sky now

FLOCK 3P 51

Track FLOCK 3P 51 now!
10-day predictions
FLOCK 3P 51 is classified as:


NORAD ID: 41952
Int'l Code: 2017-008E
Perigee: 495.0 km
Apogee: 503.9 km
Inclination: 97.4 °
Period: 94.5 minutes
Semi major axis: 6870 km
RCS: Unknown
Launch date: February 15, 2017
Source: United States (US)
Launch site: SRIHARIKOTA (SRI)
aabbcc
Your satellite tracking list
Your tracking list is empty




NASA's NSSDC Master Catalog

Two Line Element Set (TLE):
1 41952U 17008E   18197.13055891  .00001520  00000-0  64789-4 0  9991
2 41952  97.4487 261.9115 0006469 266.4560  93.5937 15.24492147 78517
Source of the keplerian elements: AFSPC